Probability
4 2 1 0 0 0 0 0 0 0 0 0 0 0 0 0 0 0 0 0 0 0 0 0 0 0 0 0 0 0 0 0 0 0 0 0 0 0 0 0 0 0 0 0 0 0 0 0 0
1 1 0 0 0 0 0 0 0 0 0 0 0 0 0 0 0 0 0 0 0 0 0 0 0 0 0 0 0 0 0 0 0 0 0 0 0 0 0 0 0 0 0 0 0 0 0 0 0
0 0 0 0 0 0 0 0 0 0 0 0 0 0 0 0 0 0 0 0 0 0 0 0 0 0 0 0 0 0 0 0 0 0 0 0 0 0 0 0 0 0 0 0 0 0 0 0 0
0 0 0 0 0 0 0 0 0 0 0 0 0 0 0 0 0 0 0 0 0 0 0 0 0 0 0 0 0 0 0 0 0 0 0 0 0 0 0 0 0 0 0 0 0 0 0 0 0
0 0 0 0 0 0 0 0 0 0 0 0 0 0 0 0 0 0 0 0 0 0 0 0 0 0 0 0 0 0 0 0 0 0 0 0 0 0 0 0 0 0 0 0 0 0 0 0 0
0 0 0 0 0 0 0 1 0 0 0 0 0 0 0 0 0 0 0 0 0 0 0 0 0 0 0 0 0 0 0 0 0 0 0 0 0 0 0 0 0 0 0 0 0 0 0 0 0
0 0 0 0 0 0 0 0 0 0 0 0 0 0 0 0 0 0 0 0 0 0 0 0 0 0 0 0 0 0 0 0 0 0 0 0 0 0 0 0 0 0 0 0 0 0 0 0 0
0 0 0 0 0 0 0 0 0 0 0 0 0 0 0 0 0 0 0 0 0 0 0 0 0 0 0 0 0 0 0 0 0 0 0 0 0 0 0 0 0 0 0 0 0 0 0 0 0
0 0 0 0 0 0 0 0 0 0 0 0 0 0 0 0 0 0 0 0 0 0 0 0 0 0 1 1 0 0 0 0 0 0 0 0 0 0 0 0 0 0 0 0 0 0 0 0 0
0 0 0 0 0 0 0 0 0 0 0 0 0 0 0 0 0 1 0 0 0 0 0 0 0 0 1 1 1 0 0 0 0 0 0 0 0 0 0 0 0 0 0 0 0 0 0 0 0
0 0 0 0 0 0 0 0 0 0 0 0 0 0 0 0 0 0 0 0 0 0 0 0 0 0 1 1 1 1 2 1 0 1 2 2 1 0 0 0 0 0 0 0 0 0 0 0 0
0 0 0 0 0 0 0 0 0 0 0 0 0 0 0 0 0 0 0 0 0 0 0 0 0 0 0 0 0 2 3 2 0 1 2 2 1 0 0 0 0 0 0 0 0 0 0 0 0
0 0 0 0 0 0 0 0 0 0 0 0 0 0 0 0 0 0 0 0 0 0 0 0 0 0 0 0 0 1 2 2 2 1 2 2 1 0 1 1 0 0 0 0 0 0 0 0 0
0 0 0 0 0 0 0 0 0 0 0 0 0 0 0 0 0 0 0 0 0 0 0 0 0 0 0 0 0 0 1 2 3 2 2 2 1 1 1 1 0 0 0 0 0 0 0 0 0
0 0 0 0 0 0 0 0 0 0 0 0 0 0 0 0 0 0 0 0 0 0 0 0 0 0 0 0 0 0 0 1 2 2 2 2 2 1 1 1 0 0 1 2 1 0 0 0 0
0 0 0 0 0 0 0 0 0 0 0 0 0 0 0 0 0 0 0 0 0 0 0 0 0 0 0 0 0 0 0 0 0 1 2 2 2 2 3 2 1 0 1 3 3 1 0 0 0
0 0 0 0 0 0 0 0 0 0 0 0 0 0 0 0 0 0 0 0 0 0 0 0 0 0 0 0 0 0 0 0 0 2 4 4 4 6 6 4 2 1 1 2 3 2 1 1 0
0 0 0 0 0 0 0 0 0 0 0 0 0 0 0 0 0 0 0 0 0 0 0 0 0 0 0 0 0 0 0 0 1 2 5 7 7 8 8 6 4 4 3 3 2 2 1 1 0
0 0 0 0 0 0 0 0 0 0 0 0 0 0 0 0 0 0 0 0 0 0 0 0 0 0 0 0 0 0 0 0 1 1 3 5 7 7 7 6 5 6 6 5 5 3 1 0 0
0 0 0 0 0 0 0 0 0 0 0 0 0 0 0 0 0 0 0 0 0 0 0 0 0 0 0 0 0 0 0 0 0 0 1 2 3 5 5 6 6 7 7 7 7 7 3 1 0
0 0 0 0 0 0 0 0 0 0 0 0 0 0 0 0 0 0 0 0 0 0 0 0 0 0 0 0 0 0 0 0 0 0 0 0 1 2 4 5 8 10 10 9 7 7 5 2 1
0 0 0 0 0 0 0 0 0 0 0 0 0 0 0 0 0 0 0 0 0 0 0 0 0 0 0 0 0 0 0 0 0 0 0 0 0 1 2 4 9 13 14 12 9 7 6 3 1
0 0 0 0 0 0 0 0 0 0 0 0 0 0 0 0 0 0 0 0 0 0 0 0 0 0 0 0 0 0 0 0 0 0 0 0 0 0 1 3 7 13 15 14 12 10 6 3 1
0 0 0 0 0 0 0 0 0 0 0 0 0 0 0 0 0 0 0 0 0 0 0 0 0 0 0 0 0 0 0 0 0 0 0 0 0 0 0 1 5 10 11 10 11 12 10 5 2
0 0 0 0 0 0 0 0 0 0 0 0 0 0 0 0 0 0 0 0 0 0 0 0 0 0 0 0 0 0 0 0 0 0 0 0 0 0 0 0 2 5 5 4 6 10 11 7 4
0 0 0 0 0 0 0 0 0 0 0 0 0 0 0 0 0 0 0 0 0 0 0 0 0 0 0 0 0 0 0 0 0 0 0 0 0 0 0 0 1 1 1 0 2 5 7 6 3
0 0 0 0 0 0 0 0 0 0 0 0 0 0 0 0 0 0 0 0 0 0 0 0 0 0 0 0 0 0 0 0 0 0 0 0 0 0 0 0 0 0 0 0 0 1 3 2 1
0 0 0 0 0 0 0 0 0 0 0 0 0 0 0 0 0 0 0 0 0 0 0 0 0 0 0 0 0 0 0 0 0 0 0 0 0 0 0 0 0 0 0 0 0 0 1 1 0
0 0 0 0 0 0 0 0 0 0 0 0 0 0 0 0 0 0 0 0 0 0 0 0 0 0 0 0 0 0 0 0 0 0 0 0 0 0 0 0 0 0 0 0 0 0 0 0 0
0 0 0 0 0 0 0 0 0 0 0 0 0 0 0 0 0 0 0 0 0 0 0 0 0 0 0 0 0 0 0 0 0 0 0 0 0 0 0 0 0 0 0 0 0 0 0 0 0
Wind_Speed
8 5 3 1 3 5 4 3 3 6 6 7 10 11 8 6 4 5 2 10 13 11 8 10 12 11 11 11 10 9 9 9 8 8 7 7 6 5 5 4 4 4 4 4 4 5 5 5 4
4 4 2 2 5 5 4 4 8 5 5 6 10 9 8 7 7 7 5 10 13 12 8 9 12 11 10 10 10 9 8 8 8 7 7 7 6 5 5 4 4 4 4 4 4 4 5 5 3
5 3 1 3 4 4 2 3 7 8 8 6 6 7 6 4 5 4 8 13 12 11 8 9 13 11 10 10 9 9 8 8 7 7 7 6 6 6 5 5 4 4 3 4 4 4 4 4 3
3 2 4 5 7 4 3 3 5 7 9 8 6 7 5 4 3 7 13 13 12 10 9 10 14 12 11 10 10 9 9 8 8 7 7 6 6 6 6 5 5 4 4 4 4 4 4 4 3
3 4 6 4 5 5 6 6 9 11 7 9 9 7 5 6 7 11 11 12 11 9 9 10 14 13 13 12 11 10 9 9 9 8 8 7 7 6 6 6 5 5 4 4 4 4 5 4 3
5 5 5 2 3 4 5 6 9 12 9 7 6 6 5 6 6 6 8 8 8 9 8 8 13 13 13 12 12 11 10 10 10 9 9 8 8 7 7 6 6 6 5 5 4 4 5 5 4
5 4 3 2 2 4 4 5 7 6 8 8 5 4 3 7 6 6 7 7 5 4 3 3 5 8 11 12 12 12 12 12 11 11 10 10 9 9 8 8 7 7 6 6 6 6 6 6 6
6 6 3 2 3 2 4 4 6 8 6 6 7 6 4 5 5 8 10 9 8 6 4 2 1 2 3 6 12 13 13 13 12 12 12 11 10 10 10 9 9 9 8 8 7 7 7 7 7
6 6 3 4 4 1 2 2 5 7 9 8 7 5 2 3 5 9 9 8 7 7 5 4 3 3 3 4 7 10 12 12 12 11 13 11 6 6 6 9 11 11 11 10 9 9 8 8 8
6 5 4 4 5 5 3 4 5 5 7 7 6 5 4 5 8 9 8 6 5 4 4 3 3 3 3 3 3 3 5 5 6 5 7 5 5 5 7 9 14 14 13 12 11 11 9 7 3
6 5 4 3 6 6 4 5 5 5 6 3 2 4 5 7 8 8 6 5 4 3 4 4 3 3 3 2 2 1 2 3 4 6 6 5 5 4 5 3 7 9 10 6 7 7 4 3 3
7 5 5 5 5 4 4 5 5 5 2 1 0 2 4 6 7 7 6 5 4 4 5 4 4 3 3 3 2 2 2 2 2 4 6 5 4 4 4 4 4 4 4 5 4 3 4 5 5
7 6 8 12 14 11 11 8 5 2 1 1 3 5 6 7 7 6 6 6 6 6 5 5 5 4 3 3 3 2 2 3 3 3 4 5 5 5 5 4 4 5 4 5 5 5 5 6 6
8 11 11 10 10 7 10 5 4 1 2 4 5 6 6 7 7 7 7 7 7 7 7 7 6 4 4 3 3 3 3 3 3 3 4 5 5 5 4 5 5 5 5 5 5 6 5 6 5
10 10 6 4 5 6 8 7 3 2 4 6 6 7 8 7 7 7 6 6 6 7 7 8 8 6 6 5 5 3 3 3 3 4 5 5 4 5 5 4 5 6 6 7 5 5 4 5 5
5 5 3 3 5 5 7 4 2 1 6 6 6 6 6 6 6 6 6 6 7 7 8 8 9 8 8 6 5 4 4 4 4 4 4 6 5 5 4 4 5 5 5 5 5 5 4 5 4
3 1 3 2 3 4 6 4 3 2 7 6 5 5 5 6 7 6 7 7 7 7 7 8 8 8 8 7 5 5 4 4 4 4 4 5 6 5 5 4 5 5 4 5 6 5 4 3 3
1 2 2 3 3 5 6 5 3 2 7 5 4 5 5 6 5 5 6 7 7 7 7 7 8 8 7 6 5 4 4 4 3 3 4 6 5 6 4 4 5 5 4 4 4 4 4 3 3
2 2 2 2 4 5 7 6 4 2 5 5 4 4 4 4 4 5 6 7 7 8 8 7 8 8 6 4 4 4 4 4 4 4 5 5 5 5 5 4 4 5 5 6 6 4 4 3 2
7 6 3 2 2 5 6 3 2 2 3 4 4 3 3 4 5 5 6 6 7 7 8 7 8 8 7 5 4 3 4 4 4 4 4 5 5 5 5 5 4 5 4 5 6 5 4 3 3
5 4 2 2 1 5 7 2 1 1 2 3 3 3 3 3 3 4 5 5 6 7 7 8 8 8 8 7 4 4 3 3 3 4 4 4 4 5 5 5 5 5 5 6 7 7 7 5 4
1 0 1 2 2 2 5 3 5 3 1 1 2 2 2 2 2 3 5 6 6 6 6 6 7 7 7 7 6 6 4 4 4 4 4 5 5 5 5 5 5 6 5 6 7 7 6 6 5
3 2 1 0 1 1 1 4 5 3 2 2 1 1 0 1 2 3 4 5 5 6 6 6 6 7 7 7 6 6 5 4 4 4 5 5 5 5 4 4 5 5 5 7 7 7 7 6 6
1 5 5 5 5 2 4 5 5 4 5 4 2 2 1 1 2 3 4 5 5 5 5 6 6 7 7 7 7 6 7 7 6 6 6 5 4 4 4 4 3 4 4 6 7 7 9 8 7
5 6 5 5 4 5 2 3 5 5 5 6 5 3 1 1 2 4 5 6 6 6 6 6 6 6 7 7 7 6 7 6 6 6 5 5 4 3 5 4 3 2 3 3 4 6 7 8 8
0 6 6 2 3 5 3 1 4 4 4 5 5 3 2 1 2 4 5 5 5 5 5 5 5 6 7 7 7 6 6 5 4 5 4 5 4 4 5 5 4 4 3 1 2 3 4 5 7
1 2 5 5 1 2 3 2 3 2 3 4 4 3 2 2 3 4 5 5 5 5 4 4 4 5 6 6 6 6 7 6 6 6 5 4 5 4 6 6 6 6 6 4 1 0 1 2 3
1 2 5 3 1 3 4 4 5 6 7 5 5 4 4 3 4 5 5 5 4 4 3 3 3 4 4 6 5 5 6 6 6 6 7 7 7 7 7 8 7 7 7 6 4 2 1 1 1
2 2 3 3 4 3 4 7 5 8 8 7 7 6 5 5 5 5 6 5 4 3 2 2 2 3 4 5 5 5 6 6 6 6 7 7 7 7 7 7 7 8 8 7 6 4 2 2 1
2 3 4 3 1 2 3 8 3 6 7 7 7 7 6 6 5 6 6 5 4 3 3 2 2 2 3 3 4 5 5 5 6 6 6 6 7 7 7 7 7 8 8 7 7 6 4 3 2
Wind_Direction
178 158 133 139 59 52 51 15 62 69 61 57 69 79 79 54 89 135 139 140 137 146 153 150 147 142 138 137 139 140 141 142 143 142 140 136 131 125 117 108 103 104 107 107 111 118 118 113 100
147 145 159 69 78 70 27 39 62 71 124 106 73 73 74 71 78 98 116 141 141 146 150 152 150 146 143 142 142 143 146 148 150 151 151 150 148 145 142 134 126 123 124 126 129 137 136 130 120
145 162 118 65 74 102 92 67 85 66 56 64 69 49 56 71 91 122 153 147 145 148 153 157 155 153 151 150 150 152 155 157 160 162 163 164 164 162 159 155 149 146 145 148 148 151 155 152 146
130 78 43 64 66 39 71 81 93 73 48 43 77 57 41 41 84 140 149 151 149 154 157 163 162 162 162 161 162 164 167 170 173 175 177 179 179 177 173 170 167 164 165 167 169 171 173 174 177
83 70 54 56 59 33 39 53 76 74 70 61 73 82 47 22 94 131 149 153 152 156 163 170 170 171 172 173 174 177 180 182 184 186 188 190 191 189 185 183 180 178 180 183 185 193 193 195 202
65 64 69 57 56 46 20 28 74 84 88 70 65 81 57 29 70 118 138 147 151 157 165 178 181 181 183 184 186 189 192 194 196 196 197 199 200 199 198 196 193 190 192 196 199 207 209 208 215
104 89 84 92 64 40 23 18 40 65 57 23 10 75 51 19 28 75 87 87 93 116 137 176 194 195 198 198 199 200 201 202 205 205 205 206 207 207 208 207 205 202 202 205 209 215 218 219 225
122 107 91 76 84 45 343 10 45 41 52 21 24 58 33 353 12 59 66 63 59 54 46 31 344 257 235 224 216 214 213 211 211 211 211 212 214 214 215 213 214 212 211 212 214 219 223 226 231
90 85 137 172 155 154 350 61 59 46 65 56 52 66 61 8 44 60 57 51 45 42 34 28 17 352 318 266 239 231 228 223 219 215 215 214 214 217 221 221 219 220 218 218 218 221 225 229 236
79 110 182 179 154 137 73 53 82 62 51 45 44 45 51 45 49 55 53 46 36 25 20 23 12 355 336 310 280 247 238 234 226 215 215 209 201 209 219 226 227 225 222 221 222 225 228 231 239
79 127 148 146 148 140 106 57 41 100 53 29 36 24 29 43 46 49 45 41 30 13 9 10 358 345 340 321 312 276 254 249 238 227 219 212 205 208 219 219 233 229 224 221 226 229 228 227 228
88 68 119 134 147 102 86 98 63 58 130 238 78 52 45 47 45 43 38 30 18 13 357 348 345 336 326 322 311 292 281 270 254 242 231 218 215 213 210 214 218 212 209 208 214 218 227 233 236
105 113 90 96 93 92 94 90 97 50 299 12 51 48 54 56 48 39 37 29 18 8 354 339 331 327 320 315 302 300 284 274 267 257 239 219 217 220 216 211 212 207 200 203 212 219 224 232 238
124 117 119 114 108 101 96 77 68 353 8 57 62 57 54 53 46 36 28 20 12 2 352 342 333 330 319 304 289 278 269 270 268 255 248 232 220 221 218 213 209 209 203 207 213 220 221 228 231
112 109 104 115 116 133 103 59 27 338 71 65 60 60 59 54 50 41 28 20 9 358 354 348 340 343 329 311 291 284 270 267 263 257 257 251 234 225 217 217 216 213 204 204 211 228 228 235 234
85 99 140 185 152 152 105 112 261 28 89 72 64 63 59 46 41 31 27 19 8 0 352 346 350 344 334 326 306 289 280 273 265 260 257 253 246 233 221 215 221 215 201 197 200 207 223 239 239
60 155 215 196 168 133 112 145 220 109 97 86 73 62 53 35 25 19 18 13 2 356 349 346 346 342 334 326 316 303 294 282 274 268 260 256 250 243 228 222 220 210 201 201 205 191 195 222 241
249 249 213 185 151 110 112 148 184 129 105 97 76 57 43 31 13 8 10 4 355 349 345 343 341 339 333 326 322 316 313 303 291 277 265 260 254 245 233 233 228 211 200 200 196 180 188 199 219
107 86 107 147 143 117 136 154 179 135 104 97 80 59 42 21 1 9 3 355 352 349 346 342 341 336 336 331 326 317 310 304 300 290 279 270 260 250 237 239 231 217 210 204 192 176 185 199 192
70 77 71 44 124 113 133 148 180 164 145 137 115 81 50 24 6 358 354 351 346 340 341 341 341 335 333 324 303 279 280 282 280 289 297 286 272 259 250 237 231 220 216 209 192 180 175 194 180
66 100 148 199 26 91 109 79 203 203 118 109 97 86 59 42 9 346 343 340 338 338 339 340 336 337 335 331 324 319 316 310 320 317 307 299 289 270 255 247 236 225 213 213 203 192 180 189 189
147 214 146 136 112 229 158 191 234 205 162 116 94 79 54 15 0 339 334 331 330 326 329 331 334 335 335 338 343 340 336 321 305 303 298 302 296 285 265 253 240 230 219 215 212 203 192 180 188
222 257 311 84 130 320 191 152 254 184 199 211 180 155 137 347 355 335 324 315 315 319 326 328 331 334 337 343 346 342 335 317 308 313 317 318 313 304 290 270 249 234 223 220 215 207 200 192 190
16 23 24 48 66 322 238 165 242 214 202 185 191 197 223 333 334 319 314 315 310 316 326 332 335 331 335 341 345 347 342 336 337 338 335 329 321 316 318 301 271 249 232 223 217 210 206 203 200
60 64 31 10 9 265 261 147 240 222 185 170 176 196 217 270 315 311 310 313 314 319 323 332 338 332 333 339 341 338 337 339 338 333 332 334 331 325 329 335 320 291 258 235 217 211 212 206 202
67 130 139 187 241 285 352 263 259 216 170 160 168 178 187 259 291 299 298 301 305 312 317 326 335 331 336 340 336 337 340 340 338 335 334 335 325 318 335 348 353 349 345 318 231 214 215 208 207
70 124 171 149 272 300 296 301 301 205 168 174 182 176 189 253 279 288 297 301 300 305 305 312 326 331 338 343 340 342 347 350 349 348 352 351 348 359 12 12 14 10 9 7 6 94 208 199 201
183 149 73 85 39 311 295 250 239 212 207 201 196 197 214 250 277 290 294 292 288 286 294 316 324 328 334 346 348 351 351 353 354 359 6 8 11 17 22 26 24 20 15 10 11 22 36 97 164
26 57 86 115 152 164 283 271 230 196 192 192 203 208 216 240 263 277 284 283 283 288 293 301 321 338 343 349 351 357 357 360 6 11 10 11 16 22 27 25 24 23 18 10 14 14 31 68 81
154 151 132 134 261 175 205 269 264 178 179 182 198 211 223 240 260 268 276 283 288 288 283 279 301 330 332 349 4 1 360 4 11 11 10 16 20 18 22 22 23 21 16 11 12 10 14 34 54